LA8QT Lodingen NO current weather conditions

sailwx.info

Wind from 146 at 4 knots

Air temperature 8.3° C
Dewpoint 6.6° C

Last reported at 2016-Aug-29 00:44 UTC.
Time now 2016-Aug-29 01:58 UTC

Location: N 68°28' E 016°04'.
View on Google Maps.

See reports from other nearby stations

  
Tides and Currents Weather Stations Pressure Air Temp Water Temp Dewpoint Dewpoint Depression Visibility Wind Speed Wind Dir Waves Ship Positions
date/time (UTC)wind fromknots sea level pressurealtimeterstation pressurevisibilityair tempwater tempwave heightnotes
2016-Aug-29 00:44 146 4 8.3
2016-Aug-29 00:29 196 2 8.3
2016-Aug-29 00:14 207 2 8.3
2016-Aug-28 23:59 215 0 7.8
2016-Aug-28 23:44 211 3 8.3
2016-Aug-28 23:29 191 2 7.8
2016-Aug-28 23:14 215 3 7.8
2016-Aug-28 22:59 222 2 7.8
2016-Aug-28 22:44 295 3 7.8
2016-Aug-28 22:29 160 4 7.8
2016-Aug-28 22:14 176 1 7.8
2016-Aug-28 21:59 203 2 8.3
2016-Aug-28 21:44 191 1 8.3
2016-Aug-28 21:29 204 1 8.3
2016-Aug-28 21:14 222 2 8.3
2016-Aug-28 20:59 204 3 8.3
2016-Aug-28 20:44 190 4 8.9
2016-Aug-28 20:29 170 8.3
2016-Aug-28 20:14 206 8.3
2016-Aug-28 19:59 207 8.3
2016-Aug-28 19:44 208 7.8
2016-Aug-28 19:29 208 7.8
2016-Aug-28 19:14 207 2 7.2
2016-Aug-28 18:59 208 2 7.2
2016-Aug-28 18:44 200 1 7.8
2016-Aug-28 18:29 231 1 8.3
2016-Aug-28 18:14 242 2 8.3
2016-Aug-28 17:59 250 1 8.3
2016-Aug-28 17:44 218 2 8.9
2016-Aug-28 17:29 295 4 9.4
2016-Aug-28 17:14 295 8 9.4
2016-Aug-28 16:59 295 5 9.4
2016-Aug-28 16:44 295 7 10.0
2016-Aug-28 16:29 295 6 10.0
2016-Aug-28 16:14 295 6 10.0
2016-Aug-28 15:59 295 6 10.0
2016-Aug-28 15:44 295 7 10.0
2016-Aug-28 15:29 204 3 10.0
2016-Aug-28 15:14 225 3 10.6
2016-Aug-28 14:59 171 1 10.6
2016-Aug-28 14:44 201 3 10.6
2016-Aug-28 14:29 190 4 10.6
2016-Aug-28 14:14 256 5 10.6
2016-Aug-28 13:59 243 7 10.0
2016-Aug-28 13:44 233 5 10.6
2016-Aug-28 13:29 244 6 10.6
2016-Aug-28 13:14 295 6 10.0
2016-Aug-28 12:59 295 5 10.6
2016-Aug-28 12:44 176 2 11.1
2016-Aug-28 12:29 295 3 11.7
2016-Aug-28 12:14 196 1 11.1
2016-Aug-28 11:59 295 3 10.6
2016-Aug-28 11:44 295 5 10.6
2016-Aug-28 11:29 295 5 11.1
2016-Aug-28 11:14 295 2 11.1
2016-Aug-28 10:59 266 4 10.0
2016-Aug-28 10:43 268 1 10.0
2016-Aug-28 10:28 268 1 10.0
2016-Aug-28 10:14 271 5 9.4
2016-Aug-28 09:58 231 1 9.4
2016-Aug-28 09:44 195 2 9.4
2016-Aug-28 09:29 169 0 9.4
2016-Aug-28 09:13 164 0 8.9
2016-Aug-28 08:58 181 1 8.3
2016-Aug-28 08:43 221 4 8.3
2016-Aug-28 08:28 183 5 8.3
2016-Aug-28 08:13 195 2 8.3
2016-Aug-28 07:58 196 1 7.8
2016-Aug-28 07:43 187 7.8
2016-Aug-28 07:28 175 7.8
2016-Aug-28 07:13 295 1 7.8
2016-Aug-28 06:58 201 7.8
2016-Aug-28 06:43 209 0 7.8
2016-Aug-28 06:28 208 0 7.8
2016-Aug-28 06:13 179 7.8
2016-Aug-28 05:58 161 0 7.8
2016-Aug-28 05:43 164 1 7.8
2016-Aug-28 05:28 173 1 7.8
2016-Aug-28 05:13 187 3 7.8
2016-Aug-28 04:58 183 3 7.2
2016-Aug-28 04:43 181 5 7.2
2016-Aug-28 04:28 199 0 7.2
2016-Aug-28 04:13 189 0 6.7
2016-Aug-28 03:58 202 0 6.1
2016-Aug-28 03:43 203 6.7
2016-Aug-28 03:28 204 6.1
2016-Aug-28 03:13 204 6.1
2016-Aug-28 02:58 205 6.1
2016-Aug-28 02:43 205 6.1
2016-Aug-28 02:28 205 6.7
2016-Aug-28 02:13 205 1 6.7
2016-Aug-28 01:58 198 1 6.7
2016-Aug-28 01:43 211 6.7
2016-Aug-28 01:28 211 6.7
2016-Aug-28 01:13 211 6.7
2016-Aug-28 00:58 219 2 7.2
2016-Aug-28 00:43 196 2 7.2
2016-Aug-28 00:28 209 0 7.2
2016-Aug-28 00:13 237 1 7.2
2016-Aug-27 23:58 246 0 7.2
2016-Aug-27 23:43 246 0 7.2
2016-Aug-27 23:28 229 1 7.2
2016-Aug-27 23:13 233 1 6.7
2016-Aug-27 22:58 194 6.1
2016-Aug-27 22:42 194 6.7
2016-Aug-27 22:27 194 7.2
2016-Aug-27 22:12 138 7.2
2016-Aug-27 21:57 140 7.2
2016-Aug-27 21:42 221 7.2
2016-Aug-27 21:27 239 1 7.2
2016-Aug-27 21:13 272 2 7.2
2016-Aug-27 20:57 219 2 7.8
2016-Aug-27 20:42 295 6 7.8
2016-Aug-27 20:27 306 2 7.8
2016-Aug-27 20:12 290 0 7.8
2016-Aug-27 19:57 260 1 7.8
2016-Aug-27 19:42 157 8.3
2016-Aug-27 19:27 279 7.8
2016-Aug-27 19:12 281 7.8
2016-Aug-27 18:57 300 1 7.8
2016-Aug-27 18:42 308 1 7.8
2016-Aug-27 18:27 011 1 7.8
2016-Aug-27 18:12 317 5 8.3
2016-Aug-27 17:57 011 5 8.3
2016-Aug-27 17:42 295 4 8.3
2016-Aug-27 17:27 325 5 8.9
2016-Aug-27 17:12 358 5 8.9
2016-Aug-27 16:57 018 4 8.9
2016-Aug-27 16:42 344 4 8.9
2016-Aug-27 16:27 357 7 8.9
2016-Aug-27 16:12 352 11 8.9
2016-Aug-27 15:57 010 9 8.9
2016-Aug-27 15:42 349 12 8.9
2016-Aug-27 15:27 358 12 9.4
2016-Aug-27 15:12 004 13 9.4
2016-Aug-27 14:57 014 11 9.4
2016-Aug-27 14:42 017 12 9.4
2016-Aug-27 14:27 360 11 9.4
2016-Aug-27 14:12 009 12 9.4
2016-Aug-27 13:57 002 11 9.4
2016-Aug-27 13:42 339 10 9.4
2016-Aug-27 13:27 341 14 9.4
2016-Aug-27 13:12 340 13 9.4
2016-Aug-27 12:57 010 14 9.4
2016-Aug-27 12:42 318 17 9.4
2016-Aug-27 12:27 002 15 10.0
2016-Aug-27 12:12 360 16 10.0
2016-Aug-27 11:57 295 16 9.4
2016-Aug-27 11:42 355 14 8.9
2016-Aug-27 11:27 353 13 8.9
2016-Aug-27 11:12 321 13 8.9
2016-Aug-27 10:57 354 13 8.9
2016-Aug-27 10:42 017 15 9.4
2016-Aug-27 10:27 339 13 9.4
2016-Aug-27 10:12 320 12 9.4
2016-Aug-27 09:57 340 12 9.4
2016-Aug-27 09:42 321 13 9.4
2016-Aug-27 09:27 344 12 10.0
2016-Aug-27 09:12 323 11 10.0
2016-Aug-27 08:57 325 13 10.6
2016-Aug-27 08:42 339 9 10.6
2016-Aug-27 08:27 006 11 10.6
2016-Aug-27 08:12 327 12 10.6
2016-Aug-27 07:57 011 14 10.6
2016-Aug-27 07:42 033 9 10.6
2016-Aug-27 07:27 344 12 10.6
2016-Aug-27 07:11 295 13 10.6
2016-Aug-27 06:57 007 12 10.6
2016-Aug-27 06:42 295 13 10.6
2016-Aug-27 06:27 342 13 10.6
2016-Aug-27 06:12 295 13 10.6
2016-Aug-27 05:57 295 13 10.6
2016-Aug-27 05:41 354 13 10.0
2016-Aug-27 05:27 350 13 10.0
2016-Aug-27 05:11 295 13 10.0
2016-Aug-27 04:57 339 13 10.0
2016-Aug-27 04:41 326 13 10.0
2016-Aug-27 04:26 333 14 10.6
2016-Aug-27 04:12 345 15 10.6
2016-Aug-27 03:56 309 14 10.6
2016-Aug-27 03:41 351 12 10.6
2016-Aug-27 03:26 328 13 10.6
2016-Aug-27 03:12 356 13 10.6
2016-Aug-27 02:56 295 13 10.0
2016-Aug-27 02:41 295 13 10.6
2016-Aug-27 02:26 346 14 10.6
2016-Aug-27 02:11 341 13 10.6
2016-Aug-27 01:56 329 15 10.6
2016-Aug-27 01:41 339 13 10.6
2016-Aug-27 01:26 295 13 10.6
2016-Aug-27 01:11 295 14 10.6